GW0019 Weather Reports


time (UTC)temp
C
wind
direction
speed
KPH
gust
KPH
rain 1hr
cm
rain 24hr
cm
rain mn
cm
humidity
%
barometer
mb
20260504215044 26 211 6.4 24.1 0.00 0.00 0.00 75 1011.3
20260504214539 25 213 25.7 30.6 0.00 0.00 0.00 75 1011.3
20260504214036 25 208 22.5 38.6 0.00 0.00 0.00 75 1011.4
20260504213532 25 214 14.5 32.2 0.00 0.00 0.00 75 1011.1
20260504213030 25 212 19.3 33.8 0.00 0.00 0.00 75 1011.2
20260504212525 26 253 20.9 33.8 0.00 0.00 0.00 75 1011.4
20260504212023 26 210 6.4 33.8 0.00 0.00 0.00 75 1011.6
20260504211520 26 246 20.9 29.0 0.00 0.00 0.00 75 1011.4
20260504211017 26 103 6.4 35.4 0.00 0.00 0.00 75 1011.6
20260504210514 25 222 11.3 35.4 0.00 0.00 0.00 75 1011.6
20260504210010 26 240 8.0 27.4 0.00 0.00 0.00 75 1011.7
20260504205508 25 213 14.5 38.6 0.00 0.00 0.00 75 1011.6
20260504205006 26 264 14.5 29.0 0.00 0.00 0.00 75 1011.7
20260504204504 25 200 14.5 41.8 0.00 0.00 0.00 75 1011.8
20260504204003 26 236 8.0 33.8 0.00 0.00 0.00 75 1011.8
20260504203500 26 249 14.5 30.6 0.00 0.00 0.00 75 1011.8
20260504202956 26 256 25.7 32.2 0.00 0.00 0.00 75 1012.1
20260504202453 26 225 6.4 25.7 0.00 0.00 0.00 75 1012.0
20260504201950 26 216 3.2 24.1 0.00 0.00 0.00 75 1012.0
20260504201447 25 230 41.8 43.5 0.00 0.00 0.00 75 1012.0
20260504200944 25 209 29.0 35.4 0.00 0.00 0.00 75 1012.2
20260504200441 26 247 27.4 37.0 0.00 0.00 0.00 75 1012.2
20260504195938 26 206 8.0 33.8 0.00 0.00 0.00 75 1012.3
20260504195433 26 215 49.9 49.9 0.00 0.00 0.00 75 1012.4
20260504194930 25 223 32.2 35.4 0.00 0.00 0.00 75 1012.4
20260504194426 25 261 17.7 35.4 0.00 0.00 0.00 75 1012.4
20260504193922 25 221 3.2 32.2 0.00 0.00 0.00 75 1012.3
20260504193420 25 199 14.5 51.5 0.00 0.00 0.00 75 1012.5
20260504192918 25 221 24.1 33.8 0.00 0.00 0.00 75 1012.5
20260504192415 25 210 24.1 40.2 0.00 0.00 0.00 75 1012.6
20260504191914 25 210 22.5 41.8 0.00 0.00 0.00 75 1012.7
20260504191412 25 198 30.6 30.6 0.00 0.00 0.00 75 1012.7
20260504190907 25 243 14.5 27.4 0.00 0.00 0.00 75 1012.6
20260504190403 25 209 25.7 35.4 0.00 0.00 0.00 75 1012.7
20260504185900 25 222 35.4 40.2 0.00 0.00 0.00 75 1012.8
20260504185357 25 202 9.7 30.6 0.00 0.00 0.00 75 1012.6
20260504184853 25 75 4.8 40.2 0.00 0.00 0.00 75 1013.2
20260504184349 25 211 4.8 35.4 0.00 0.00 0.00 75 1012.8
20260504183845 25 210 9.7 24.1 0.00 0.00 0.00 75 1013.2
20260504183342 25 217 25.7 32.2 0.00 0.00 0.00 75 1012.8
20260504182840 24 255 14.5 35.4 0.00 0.00 0.00 75 1013.1
20260504182337 25 250 16.1 43.5 0.00 0.00 0.00 75 1013.1
20260504181834 24 208 22.5 46.7 0.00 0.00 0.00 74 1013.0
20260504181331 24 188 4.8 40.2 0.00 0.00 0.00 74 1012.8
20260504180830 24 202 9.7 35.4 0.00 0.00 0.00 74 1013.1
20260504180328 24 232 32.2 37.0 0.00 0.00 0.00 74 1013.4
20260504175826 24 219 16.1 32.2 0.00 0.00 0.00 75 1013.1
20260504175322 24 184 3.2 32.2 0.00 0.00 0.00 75 1013.3
20260504174821 23 205 19.3 40.2 0.00 0.00 0.00 74 1013.5
20260504174318 23 225 12.9 45.1 0.00 0.00 0.00 74 1013.2
20260504173814 23 195 14.5 30.6 0.00 0.00 0.00 74 1013.4
20260504173311 23 232 6.4 38.6 0.00 0.00 0.00 74 1013.6
20260504172808 23 196 8.0 32.2 0.00 0.00 0.00 74 1013.5
20260504172305 23 254 16.1 32.2 0.00 0.00 0.00 74 1013.4
20260504171800 23 213 14.5 29.0 0.00 0.00 0.00 74 1013.7
20260504171258 23 245 27.4 35.4 0.00 0.00 0.00 74 1013.5
20260504170755 23 200 4.8 43.5 0.00 0.00 0.00 74 1013.6
20260504170252 23 190 11.3 38.6 0.00 0.00 0.00 74 1013.8
20260504160210 22 241 6.4 37.0 0.00 0.00 0.00 74 1014.2
20260504151138 21 196 8.0 45.1 0.00 0.00 0.00 74 1014.7
20260504150636 21 227 29.0 37.0 0.00 0.00 0.00 74 1014.7
20260504150132 21 226 25.7 32.2 0.00 0.00 0.00 74 1014.8
20260504141101 19 264 12.9 40.2 0.00 0.00 0.00 73 1015.2
20260504140558 20 225 30.6 38.6 0.00 0.00 0.00 73 1015.4
20260504130522 18 251 4.8 24.1 0.00 0.00 0.00 73 1015.4
20260504110409 16 224 12.9 20.9 0.00 0.00 0.00 73 1014.9
20260504100326 16 259 0.0 19.3 0.00 0.00 0.00 73 1015.1
20260504081720 17 147 8.0 20.9 0.00 0.00 0.00 73 1015.2
20260504081216 17 225 6.4 27.4 0.00 0.00 0.00 73 1015.3
20260504080713 17 220 9.7 24.1 0.00 0.00 0.00 73 1015.4
20260504080209 17 230 11.3 19.3 0.00 0.00 0.00 73 1015.7
20260504070137 17 219 12.9 20.9 0.00 0.00 0.00 73 1015.8
20260504050526 18 198 11.3 19.3 0.00 0.00 0.00 73 1016.8
20260504050023 18 196 14.5 20.9 0.00 0.00 0.00 73 1016.7
20260504045519 18 206 14.5 22.5 0.00 0.00 0.00 73 1017.0
20260504045015 18 186 4.8 17.7 0.00 0.00 0.00 73 1017.0
20260504044513 18 201 11.3 19.3 0.00 0.00 0.00 73 1016.8
20260504044009 18 195 8.0 17.7 0.00 0.00 0.00 73 1017.1
20260504043506 18 202 14.5 16.1 0.00 0.00 0.00 73 1017.1
20260504043004 18 204 14.5 19.3 0.00 0.00 0.00 73 1017.2
20260504042500 18 204 9.7 16.1 0.00 0.00 0.00 73 1017.1
20260504041957 18 253 9.7 16.1 0.00 0.00 0.00 73 1017.1
20260504041453 18 226 6.4 16.1 0.00 0.00 0.00 73 1017.3
20260504040949 18 219 8.0 16.1 0.00 0.00 0.00 73 1017.5
20260504040447 18 204 11.3 20.9 0.00 0.00 0.00 73 1017.3
20260504035943 18 208 8.0 17.7 0.00 0.00 0.00 73 1017.5
20260504035441 18 229 14.5 19.3 0.00 0.00 0.00 73 1017.4
20260504034937 18 236 8.0 16.1 0.00 0.00 0.00 73 1017.6
20260504034435 18 228 14.5 24.1 0.00 0.00 0.00 73 1017.5
20260504033931 18 204 12.9 16.1 0.00 0.00 0.00 73 1017.6
20260504033429 18 232 8.0 20.9 0.00 0.00 0.00 73 1017.7
20260504032926 18 174 1.6 12.9 0.00 0.00 0.00 73 1017.6
20260504032423 18 217 11.3 14.5 0.00 0.00 0.00 73 1017.7
20260504031920 18 222 9.7 16.1 0.00 0.00 0.00 73 1017.9
20260504031417 18 220 9.7 14.5 0.00 0.00 0.00 73 1017.8
20260504030913 18 193 8.0 14.5 0.00 0.00 0.00 73 1017.7
20260504030410 18 205 11.3 12.9 0.00 0.00 0.00 73 1017.7
20260504025906 18 197 9.7 20.9 0.00 0.00 0.00 73 1017.5
20260504025403 18 199 8.0 14.5 0.00 0.00 0.00 73 1017.9
20260504024900 18 199 8.0 11.3 0.00 0.00 0.00 73 1017.6
20260504024356 18 215 9.7 14.5 0.00 0.00 0.00 73 1017.6
20260504023854 19 182 6.4 12.9 0.00 0.00 0.00 73 1017.6
20260504023350 19 221 11.3 14.5 0.00 0.00 0.00 73 1017.6
20260504022846 19 222 8.0 12.9 0.00 0.00 0.00 73 1017.3
20260504022343 19 202 9.7 12.9 0.00 0.00 0.00 73 1017.3
20260504021840 19 194 8.0 16.1 0.00 0.00 0.00 73 1017.3
20260504021337 20 214 8.0 11.3 0.00 0.00 0.00 73 1017.2
20260504020834 20 208 11.3 11.3 0.00 0.00 0.00 74 1017.4
20260504020331 20 199 11.3 14.5 0.00 0.00 0.00 74 1017.2
20260504015826 20 90 3.2 11.3 0.00 0.00 0.00 74 1017.1
20260504015323 20 199 11.3 12.9 0.00 0.00 0.00 74 1017.1
20260504014819 20 201 8.0 16.1 0.00 0.00 0.00 74 1017.4
20260504014315 20 202 9.7 11.3 0.00 0.00 0.00 74 1017.3
20260504013813 20 198 8.0 16.1 0.00 0.00 0.00 74 1017.1
20260504013311 20 214 6.4 12.9 0.00 0.00 0.00 74 1017.1
20260504012807 20 212 11.3 14.5 0.00 0.00 0.00 74 1017.1
20260504012305 20 205 9.7 12.9 0.00 0.00 0.00 74 1016.8
20260504011802 21 217 9.7 12.9 0.00 0.00 0.00 74 1017.0
20260504011258 21 153 9.7 12.9 0.00 0.00 0.00 74 1016.9
20260504010754 21 194 6.4 11.3 0.00 0.00 0.00 74 1017.0
20260504010250 21 223 11.3 11.3 0.00 0.00 0.00 74 1017.0
20260504005747 21 216 11.3 14.5 0.00 0.00 0.00 74 1016.9
20260504005244 21 204 12.9 16.1 0.00 0.00 0.00 74 1016.8
20260504004742 21 208 14.5 17.7 0.00 0.00 0.00 74 1017.0
20260504004239 22 211 11.3 19.3 0.00 0.00 0.00 74 1017.0
20260504003735 22 204 17.7 17.7 0.00 0.00 0.00 74 1017.0
20260504003232 22 206 12.9 14.5 0.00 0.00 0.00 74 1017.1
20260504002729 22 203 11.3 17.7 0.00 0.00 0.00 74 1016.9
20260504002226 22 203 16.1 17.7 0.00 0.00 0.00 74 1016.9
20260504001724 22 202 14.5 17.7 0.00 0.00 0.00 74 1016.9
20260504001220 22 208 9.7 17.7 0.00 0.00 0.00 74 1016.8
20260504000717 22 204 12.9 17.7 0.00 0.00 0.00 74 1017.0
20260504000214 22 241 9.7 20.9 0.00 0.00 0.00 74 1016.7
20260503235713 23 227 14.5 22.5 0.00 0.00 0.00 74 1017.0
20260503235209 23 198 12.9 25.7 0.00 0.00 0.00 74 1016.9
20260503234707 23 204 11.3 19.3 0.00 0.00 0.00 74 1016.9
20260503234205 23 195 14.5 22.5 0.00 0.00 0.00 74 1017.1
20260503233702 23 205 9.7 24.1 0.00 0.00 0.00 74 1017.1
20260503233157 23 202 11.3 22.5 0.00 0.00 0.00 74 1017.0
20260503232654 23 198 9.7 25.7 0.00 0.00 0.00 74 1017.3
20260503232151 23 191 14.5 19.3 0.00 0.00 0.00 74 1017.3
20260503231650 23 203 9.7 22.5 0.00 0.00 0.00 74 1017.4
20260503231145 24 196 9.7 25.7 0.00 0.00 0.00 74 1017.4
20260503230642 24 254 14.5 14.5 0.00 0.00 0.00 75 1017.5
20260503230140 24 267 4.8 22.5 0.00 0.00 0.00 75 1017.4
20260503225637 24 249 12.9 27.4 0.00 0.00 0.00 75 1017.6
20260503225137 24 222 20.9 27.4 0.00 0.00 0.00 74 1017.5
20260503224634 23 207 11.3 22.5 0.00 0.00 0.00 74 1017.5
20260503224132 23 203 17.7 25.7 0.00 0.00 0.00 74 1017.7
20260503223630 24 228 14.5 20.9 0.00 0.00 0.00 74 1017.8
20260503223126 23 200 11.3 22.5 0.00 0.00 0.00 74 1017.8
20260503222623 24 165 6.4 20.9 0.00 0.00 0.00 74 1017.8
20260503222121 23 205 17.7 29.0 0.00 0.00 0.00 74 1017.8
20260503221619 24 198 17.7 25.7 0.00 0.00 0.00 74 1018.0
20260503221116 23 207 16.1 27.4 0.00 0.00 0.00 74 1018.0
20260503220613 23 214 16.1 24.1 0.00 0.00 0.00 74 1018.0
20260503220110 23 210 16.1 29.0 0.00 0.00 0.00 74 1018.2
20260503215607 23 146 3.2 19.3 0.00 0.00 0.00 74 1018.1